Location: Calvatone
(45.1167°N, 10.4333°E)
Time: 08:31:49
(UTC+00:00)

METEOR M2 - Pass Details

Date: 03 December 2023
Orbit: 819 x 826 km, 98.4° (Epoch: 02 March)

Event Time Altitude Azimuth Distance (km) Brightness Sun altitude
Rises 17:03:03 0° 191° (S) 3,349 ? -14.6°
Reaches altitude 10° 17:05:37 10° 201° (SSW) 2,421 ? -15.1°
Maximum altitude 17:10:25 33° 264° (W) 1,362 ? -15.9°
Drops below altitude 10° 17:15:15 10° 328° (NNW) 2,437 ? -16.7°
Sets 17:17:52 0° 338° (NNW) 3,374 ? -17.2°
